contact:dominique.lefevre@mio.osupytheas.fr, maurice.libes@osupytheas.fr, didier.mallarino@osupytheas.fr
Project:EMSO http://www.emso-fr.org/EMSO-France
Depth: 2436.0 m
Title:EMSO Ligure Ouest : Data MII capteur AQUADOPP
Date,Latitude,Longitude,X_East,Y_North,Z_Up,Amplitude_X,Amplitude_Y,Amplitude_Z,Batterie,SoundSpeed,Heading,Pitch,Roll,Pressure,TIS,Speed,Direction
, degrees North, degrees East, m.s-1, m.s-1,m.s-1, 1, 1, 1, Volt, m.s-1, degree, degree, degree, dbar, degree_C, m.s-1, degree
2021-10-09T00:04:03,42.805,6.029,-0.025,-0.014,-0.005,103.0,102.0,101.0,13.4,1505.2,329.2,-0.7,1.8,2470.602,13.28,0.028,240.7
2021-10-09T00:07:03,42.805,6.029,-0.04,-0.008,-0.029,103.0,102.0,101.0,13.4,1505.2,325.7,-0.8,1.8,2470.628,13.28,0.04,258.7
2021-10-09T00:10:03,42.805,6.029,-0.046,0.003,-0.028,103.0,103.0,100.0,13.4,1505.2,327.1,-0.8,1.8,2470.619,13.28,0.046,273.7
2021-10-09T00:13:03,42.805,6.029,-0.037,-0.005,-0.006,103.0,101.0,102.0,13.4,1505.2,331.3,-0.8,1.8,2470.603,13.28,0.037,262.3
2021-10-09T00:16:03,42.805,6.029,-0.062,-0.02,-0.033,102.0,103.0,101.0,13.4,1505.2,325.4,-0.8,1.8,2470.581,13.28,0.065,252.1
2021-10-09T00:19:03,42.805,6.029,-0.027,-0.007,-0.013,103.0,101.0,101.0,13.4,1505.2,328.4,-0.7,1.8,2470.576,13.28,0.027,255.5
2021-10-09T00:22:03,42.805,6.029,-0.031,-0.013,-0.02,103.0,101.0,100.0,13.4,1505.2,331.7,-0.7,1.8,2470.58,13.28,0.033,247.3
2021-10-09T00:25:03,42.805,6.029,-0.056,0.003,-0.003,102.0,103.0,101.0,13.4,1505.2,326.5,-0.8,1.8,2470.603,13.28,0.056,273.1
2021-10-09T00:28:03,42.805,6.029,-0.042,0.0,-0.027,103.0,102.0,102.0,13.4,1505.2,327.9,-0.7,1.8,2470.564,13.28,0.042,270.0
2021-10-09T00:31:03,42.805,6.029,-0.011,0.01,0.021,103.0,102.0,101.0,13.4,1505.2,329.9,-0.8,1.8,2470.547,13.28,0.014,312.3
2021-10-09T00:34:03,42.805,6.029,-0.032,-0.011,-0.023,104.0,102.0,102.0,13.3,1505.2,325.7,-0.8,1.8,2470.564,13.28,0.033,251.0
2021-10-09T00:37:03,42.805,6.029,-0.055,-0.001,0.011,104.0,102.0,100.0,13.4,1505.2,325.6,-0.8,1.8,2470.553,13.28,0.055,269.0
2021-10-09T00:40:03,42.805,6.029,-0.034,-0.017,-0.024,103.0,101.0,101.0,13.3,1505.2,331.4,-0.7,1.8,2470.522,13.28,0.038,243.4
2021-10-09T00:43:03,42.805,6.029,-0.03,-0.01,-0.019,103.0,103.0,102.0,13.3,1505.2,328.5,-0.8,1.8,2470.537,13.28,0.031,251.6
2021-10-09T00:46:03,42.805,6.029,-0.041,-0.007,-0.01,101.0,103.0,102.0,13.3,1505.2,330.2,-0.8,1.8,2470.561,13.28,0.041,260.3
2021-10-09T00:49:03,42.805,6.029,-0.035,0.002,-0.047,104.0,102.0,101.0,13.4,1505.2,326.3,-0.8,1.8,2470.528,13.28,0.035,273.3
2021-10-09T00:52:03,42.805,6.029,-0.048,0.005,-0.021,103.0,103.0,102.0,13.4,1505.2,326.5,-0.8,1.8,2470.536,13.28,0.048,275.9
2021-10-09T00:55:03,42.805,6.029,-0.043,-0.003,0.007,103.0,103.0,101.0,13.4,1505.2,328.1,-0.7,1.8,2470.526,13.28,0.043,266.0
2021-10-09T00:58:03,42.805,6.029,-0.04,0.003,0.005,103.0,103.0,101.0,13.3,1505.2,329.5,-0.7,1.8,2470.547,13.28,0.04,274.3
2021-10-09T01:04:03,42.805,6.029,-0.076,-0.001,-0.016,104.0,104.0,102.0,13.3,1505.2,330.5,-0.7,1.8,2470.626,13.28,0.076,269.2
2021-10-09T01:07:03,42.805,6.029,-0.035,-0.016,-0.007,103.0,102.0,101.0,13.3,1505.2,328.1,-0.8,1.8,2470.564,13.28,0.038,245.4
2021-10-09T01:10:03,42.805,6.029,-0.053,0.0,0.001,102.0,102.0,101.0,13.4,1505.2,328.3,-0.7,1.8,2470.55,13.28,0.053,270.0
2021-10-09T01:13:03,42.805,6.029,-0.028,0.002,-0.03,103.0,102.0,101.0,13.3,1505.2,331.2,-0.8,1.8,2470.538,13.28,0.028,274.1
2021-10-09T01:16:03,42.805,6.029,-0.029,-0.017,-0.023,102.0,103.0,100.0,13.4,1505.2,327.6,-0.8,1.8,2470.532,13.28,0.033,239.6
2021-10-09T01:19:03,42.805,6.029,-0.049,0.003,-0.027,103.0,102.0,101.0,13.4,1505.2,327.1,-0.8,1.8,2470.538,13.28,0.049,273.5
2021-10-09T01:22:03,42.805,6.029,-0.046,0.0,-0.011,102.0,104.0,101.0,13.4,1505.2,326.5,-0.7,1.8,2470.533,13.28,0.046,270.0
2021-10-09T01:25:03,42.805,6.029,-0.035,0.006,-0.019,104.0,102.0,101.0,13.3,1505.2,331.6,-0.7,1.9,2470.521,13.28,0.035,279.7
2021-10-09T01:28:03,42.805,6.029,-0.042,-0.005,-0.039,102.0,102.0,102.0,13.4,1505.2,329.4,-0.7,1.8,2470.534,13.28,0.042,263.2
2021-10-09T01:31:03,42.805,6.029,-0.046,0.003,0.014,103.0,102.0,101.0,13.4,1505.2,328.2,-0.7,1.8,2470.493,13.28,0.046,273.7
2021-10-09T01:34:03,42.805,6.029,-0.044,0.013,-0.024,103.0,101.0,101.0,13.4,1505.2,327.4,-0.8,1.8,2470.519,13.28,0.045,286.5
2021-10-09T01:37:03,42.805,6.029,-0.024,-0.005,-0.018,101.0,101.0,102.0,13.4,1505.2,326.4,-0.8,1.8,2470.463,13.28,0.024,258.2
2021-10-09T01:40:03,42.805,6.029,-0.059,0.007,-0.024,103.0,102.0,102.0,13.4,1505.2,328.7,-0.7,1.8,2470.528,13.28,0.059,276.8
2021-10-09T01:43:03,42.805,6.029,-0.016,-0.003,0.005,103.0,103.0,101.0,13.4,1505.2,331.8,-0.7,1.8,2470.493,13.28,0.016,259.4
2021-10-09T01:46:03,42.805,6.029,-0.047,-0.013,-0.049,103.0,102.0,101.0,13.4,1505.2,327.6,-0.7,1.8,2470.505,13.28,0.048,254.5
2021-10-09T01:49:03,42.805,6.029,-0.046,0.012,-0.004,103.0,102.0,101.0,13.3,1505.2,330.2,-0.8,1.8,2470.512,13.28,0.047,284.6
2021-10-09T01:52:03,42.805,6.029,-0.057,-0.002,-0.019,103.0,100.0,101.0,13.3,1505.2,326.6,-0.7,1.8,2470.467,13.28,0.057,268.0
2021-10-09T01:55:03,42.805,6.029,-0.033,-0.003,-0.017,102.0,102.0,100.0,13.4,1505.2,326.9,-0.7,1.8,2470.527,13.28,0.033,264.8
2021-10-09T01:58:03,42.805,6.029,-0.044,-0.003,-0.017,102.0,102.0,102.0,13.4,1505.2,328.9,-0.8,1.8,2470.513,13.28,0.044,266.1
2021-10-09T02:04:03,42.805,6.029,-0.041,0.009,-0.004,102.0,102.0,101.0,13.3,1505.2,326.0,-0.7,1.8,2470.522,13.28,0.041,282.4
2021-10-09T02:07:03,42.805,6.029,-0.044,-0.002,-0.018,103.0,103.0,101.0,13.4,1505.2,326.7,-0.8,1.8,2470.522,13.28,0.044,267.4
2021-10-09T02:10:03,42.805,6.029,-0.042,0.002,-0.012,103.0,101.0,102.0,13.4,1505.2,330.8,-0.8,1.8,2470.487,13.28,0.042,272.7
2021-10-09T02:13:03,42.805,6.029,-0.04,0.004,-0.032,102.0,103.0,101.0,13.4,1505.2,327.0,-0.8,1.8,2470.508,13.28,0.04,275.7
2021-10-09T02:16:03,42.805,6.029,-0.046,-0.008,-0.039,103.0,102.0,100.0,13.3,1505.2,327.6,-0.8,1.8,2470.504,13.28,0.046,260.1
2021-10-09T02:19:03,42.805,6.029,-0.029,-0.002,-0.012,102.0,102.0,103.0,13.4,1505.2,331.4,-0.7,1.8,2470.509,13.28,0.029,266.1
2021-10-09T02:22:03,42.805,6.029,-0.021,-0.007,-0.032,103.0,103.0,100.0,13.4,1505.2,326.8,-0.8,1.8,2470.474,13.28,0.022,251.6
2021-10-09T02:25:03,42.805,6.029,-0.049,0.001,-0.009,102.0,103.0,101.0,13.3,1505.2,331.2,-0.8,1.8,2470.503,13.28,0.049,271.2
2021-10-09T02:28:03,42.805,6.029,-0.034,0.004,-0.016,103.0,101.0,101.0,13.4,1505.2,328.9,-0.7,1.8,2470.501,13.28,0.034,276.7
2021-10-09T02:31:03,42.805,6.029,-0.027,0.002,-0.019,103.0,102.0,101.0,13.4,1505.2,331.2,-0.7,1.8,2470.463,13.28,0.027,274.2
2021-10-09T02:34:03,42.805,6.029,-0.036,-0.002,-0.003,102.0,103.0,101.0,13.4,1505.2,326.3,-0.7,1.8,2470.504,13.28,0.036,266.8
2021-10-09T02:37:03,42.805,6.029,-0.036,-0.004,-0.021,104.0,101.0,101.0,13.4,1505.2,328.7,-0.7,1.8,2470.463,13.28,0.036,263.7
2021-10-09T02:40:03,42.805,6.029,-0.035,0.013,-0.018,102.0,102.0,102.0,13.3,1505.2,330.9,-0.8,1.8,2470.51,13.28,0.037,290.4
2021-10-09T02:43:03,42.805,6.029,-0.017,-0.011,-0.005,102.0,101.0,101.0,13.4,1505.2,326.3,-0.7,1.8,2470.49,13.28,0.02,237.1
2021-10-09T02:46:03,42.805,6.029,-0.041,0.002,-0.028,103.0,103.0,100.0,13.4,1505.2,328.6,-0.7,1.8,2470.477,13.28,0.041,272.8
2021-10-09T02:49:03,42.805,6.029,-0.052,0.0,-0.013,103.0,113.0,101.0,13.4,1505.2,330.2,-0.7,1.8,2470.46,13.28,0.052,270.0
2021-10-09T02:52:03,42.805,6.029,-0.053,0.005,-0.02,103.0,101.0,101.0,13.4,1505.2,329.9,-0.7,1.9,2470.495,13.28,0.053,275.4
2021-10-09T02:55:03,42.805,6.029,-0.046,0.017,0.008,103.0,103.0,102.0,13.4,1505.2,331.5,-0.7,1.8,2470.482,13.28,0.049,290.3
2021-10-09T02:58:03,42.805,6.029,-0.016,0.016,-0.003,102.0,103.0,101.0,13.4,1505.2,329.7,-0.8,1.8,2470.519,13.28,0.022,315.0
2021-10-09T03:04:03,42.805,6.029,-0.062,0.006,-0.02,102.0,103.0,100.0,13.4,1505.2,331.1,-0.7,1.8,2470.525,13.28,0.062,275.5
2021-10-09T03:07:03,42.805,6.029,-0.032,0.007,-0.005,102.0,102.0,102.0,13.3,1505.2,329.4,-0.7,1.8,2470.542,13.28,0.032,282.3
2021-10-09T03:10:03,42.805,6.029,-0.063,0.033,-0.028,103.0,102.0,101.0,13.3,1505.2,330.5,-0.7,1.8,2470.537,13.28,0.071,297.6
2021-10-09T03:13:03,42.805,6.029,-0.041,0.014,-0.031,103.0,100.0,100.0,13.4,1505.2,327.5,-0.7,1.8,2470.471,13.28,0.043,288.9
2021-10-09T03:16:03,42.805,6.029,-0.073,0.016,0.018,104.0,102.0,100.0,13.3,1505.2,328.9,-0.8,1.8,2470.515,13.28,0.074,282.4
2021-10-09T03:19:03,42.805,6.029,-0.067,0.009,-0.023,103.0,104.0,100.0,13.3,1505.2,330.7,-0.7,1.8,2470.491,13.28,0.067,277.7
2021-10-09T03:22:03,42.805,6.029,-0.046,0.016,-0.021,102.0,103.0,102.0,13.4,1505.2,331.0,-0.7,1.8,2470.513,13.28,0.048,289.2
2021-10-09T03:25:03,42.805,6.029,-0.049,0.01,-0.025,105.0,103.0,99.0,13.4,1505.2,326.1,-0.8,1.8,2470.466,13.28,0.05,281.5
2021-10-09T03:28:03,42.805,6.029,-0.04,0.032,-0.01,101.0,103.0,102.0,13.4,1505.2,327.3,-0.7,1.8,2470.512,13.28,0.051,308.7
2021-10-09T03:31:03,42.805,6.029,-0.042,0.003,-0.009,101.0,103.0,101.0,13.4,1505.2,328.3,-0.7,1.8,2470.496,13.28,0.042,274.1
2021-10-09T03:34:03,42.805,6.029,-0.041,0.002,-0.017,102.0,103.0,102.0,13.4,1505.2,331.0,-0.8,1.8,2470.541,13.28,0.041,272.8
2021-10-09T03:37:03,42.805,6.029,-0.036,0.016,-0.016,103.0,103.0,102.0,13.3,1505.2,331.2,-0.8,1.8,2470.48,13.28,0.039,294.0
2021-10-09T03:40:03,42.805,6.029,-0.041,0.026,0.007,102.0,102.0,100.0,13.3,1505.2,329.2,-0.7,1.8,2470.514,13.28,0.048,302.4
2021-10-09T03:43:03,42.805,6.029,-0.045,-0.002,-0.028,102.0,101.0,102.0,13.4,1505.2,325.4,-0.7,1.8,2470.477,13.28,0.045,267.5
2021-10-09T03:46:03,42.805,6.029,-0.053,0.014,-0.019,102.0,102.0,101.0,13.3,1505.2,331.3,-0.8,1.8,2470.493,13.28,0.054,284.8
2021-10-09T03:49:03,42.805,6.029,-0.038,0.034,0.015,102.0,102.0,101.0,13.3,1505.2,328.0,-0.7,1.8,2470.522,13.28,0.05,311.8
2021-10-09T03:52:03,42.805,6.029,-0.062,0.018,-0.038,102.0,101.0,101.0,13.4,1505.2,331.3,-0.7,1.8,2470.504,13.28,0.064,286.2
2021-10-09T03:55:03,42.805,6.029,-0.05,0.007,-0.005,103.0,102.0,101.0,13.4,1505.2,330.1,-0.8,1.9,2470.492,13.28,0.05,278.0
2021-10-09T03:58:03,42.805,6.029,-0.018,0.015,-0.013,103.0,102.0,101.0,13.3,1505.2,331.9,-0.8,1.8,2470.499,13.28,0.023,309.8
2021-10-09T04:04:03,42.805,6.029,-0.026,0.026,-0.011,102.0,102.0,100.0,13.3,1505.2,329.1,-0.8,1.8,2470.527,13.28,0.036,315.0
2021-10-09T04:07:03,42.805,6.029,-0.04,0.024,-0.016,101.0,102.0,100.0,13.4,1505.2,329.1,-0.7,1.8,2470.537,13.28,0.046,301.0
2021-10-09T04:10:03,42.805,6.029,-0.018,0.032,0.031,100.0,102.0,101.0,13.4,1505.2,331.7,-0.8,1.8,2470.509,13.28,0.036,330.6
2021-10-09T04:13:03,42.805,6.029,-0.037,0.026,-0.044,103.0,102.0,101.0,13.4,1505.2,326.4,-0.8,1.8,2470.475,13.28,0.045,305.1
2021-10-09T04:16:03,42.805,6.029,-0.052,0.031,-0.013,103.0,103.0,100.0,13.3,1505.2,327.9,-0.7,1.8,2470.498,13.28,0.06,300.8
2021-10-09T04:19:03,42.805,6.029,-0.056,0.013,-0.013,103.0,101.0,100.0,13.4,1505.2,326.8,-0.8,1.8,2470.53,13.28,0.057,283.1
2021-10-09T04:22:03,42.805,6.029,-0.038,0.022,-0.012,102.0,101.0,100.0,13.4,1505.2,331.6,-0.8,1.8,2470.495,13.28,0.043,300.1
2021-10-09T04:25:03,42.805,6.029,-0.058,0.026,-0.016,101.0,101.0,101.0,13.4,1505.2,326.7,-0.7,1.8,2470.526,13.28,0.063,294.1
2021-10-09T04:28:03,42.805,6.029,-0.041,0.013,-0.002,102.0,103.0,101.0,13.4,1505.2,325.6,-0.7,1.8,2470.508,13.28,0.043,287.6
2021-10-09T04:31:03,42.805,6.029,-0.057,0.026,-0.007,103.0,100.0,103.0,13.4,1505.2,327.0,-0.7,1.8,2470.481,13.28,0.062,294.5
2021-10-09T04:34:03,42.805,6.029,-0.043,0.024,-0.001,101.0,102.0,102.0,13.4,1505.2,329.1,-0.8,1.8,2470.51,13.28,0.049,299.2
2021-10-09T04:37:03,42.805,6.029,-0.058,0.02,-0.015,101.0,102.0,101.0,13.3,1505.2,327.4,-0.7,1.8,2470.584,13.28,0.061,289.0
2021-10-09T04:40:03,42.805,6.029,-0.039,0.013,-0.008,102.0,102.0,101.0,13.4,1505.2,329.7,-0.8,1.8,2470.527,13.28,0.041,288.4
2021-10-09T04:43:03,42.805,6.029,-0.046,0.011,-0.012,101.0,102.0,101.0,13.3,1505.2,326.1,-0.7,1.8,2470.52,13.28,0.047,283.4
2021-10-09T04:46:03,42.805,6.029,-0.058,0.026,-0.002,102.0,101.0,100.0,13.4,1505.2,327.8,-0.8,1.8,2470.52,13.28,0.063,294.1
2021-10-09T04:49:03,42.805,6.029,-0.042,0.024,-0.003,101.0,101.0,101.0,13.4,1505.2,328.7,-0.8,1.8,2470.492,13.28,0.048,299.7
2021-10-09T04:52:03,42.805,6.029,-0.061,0.015,-0.008,101.0,102.0,100.0,13.4,1505.2,326.8,-0.7,1.8,2470.508,13.28,0.062,283.8
2021-10-09T04:55:03,42.805,6.029,-0.054,0.018,-0.033,102.0,102.0,101.0,13.3,1505.2,331.1,-0.7,1.8,2470.501,13.28,0.056,288.4
2021-10-09T04:58:03,42.805,6.029,-0.057,0.012,0.005,102.0,102.0,100.0,13.3,1505.2,326.3,-0.7,1.8,2470.529,13.28,0.058,281.9
2021-10-09T05:04:03,42.805,6.029,-0.046,0.017,0.001,102.0,102.0,100.0,13.4,1505.2,327.4,-0.8,1.8,2470.592,13.28,0.049,290.3
2021-10-09T05:07:03,42.805,6.029,-0.053,0.029,0.005,102.0,103.0,100.0,13.3,1505.2,331.7,-0.8,1.9,2470.569,13.28,0.06,298.7
2021-10-09T05:10:03,42.805,6.029,-0.032,0.01,-0.006,101.0,101.0,102.0,13.4,1505.2,330.3,-0.8,1.8,2470.523,13.28,0.033,287.4
2021-10-09T05:13:03,42.805,6.029,-0.046,0.013,0.006,101.0,102.0,100.0,13.4,1505.2,327.9,-0.8,1.8,2470.554,13.28,0.047,285.8
2021-10-09T05:16:03,42.805,6.029,-0.05,0.015,-0.001,102.0,101.0,100.0,13.3,1505.2,330.0,-0.7,1.8,2470.52,13.28,0.052,286.7
2021-10-09T05:19:03,42.805,6.029,-0.054,0.028,-0.019,102.0,102.0,100.0,13.4,1505.2,330.6,-0.7,1.8,2470.576,13.28,0.06,297.4
2021-10-09T05:22:03,42.805,6.029,-0.048,0.022,-0.012,102.0,101.0,101.0,13.3,1505.2,329.3,-0.8,1.8,2470.518,13.28,0.052,294.6
2021-10-09T05:25:03,42.805,6.029,-0.034,0.008,-0.005,100.0,103.0,101.0,13.4,1505.2,329.6,-0.8,1.8,2470.587,13.28,0.034,283.2
2021-10-09T05:28:03,42.805,6.029,-0.066,0.025,-0.016,102.0,101.0,102.0,13.4,1505.2,328.1,-0.8,1.8,2470.542,13.28,0.07,290.7
2021-10-09T05:31:03,42.805,6.029,-0.053,0.004,-0.007,101.0,101.0,101.0,13.4,1505.2,328.3,-0.8,1.8,2470.565,13.28,0.053,274.3
2021-10-09T05:34:03,42.805,6.029,-0.042,0.026,0.009,102.0,103.0,100.0,13.3,1505.2,327.0,-0.7,1.8,2470.547,13.28,0.049,301.8
2021-10-09T05:37:03,42.805,6.029,-0.027,0.005,-0.004,103.0,102.0,101.0,13.4,1505.2,327.5,-0.7,1.8,2470.542,13.28,0.027,280.5
2021-10-09T05:40:03,42.805,6.029,-0.036,0.014,0.001,103.0,102.0,100.0,13.4,1505.2,326.0,-0.8,1.8,2470.57,13.28,0.038,291.2
2021-10-09T05:43:03,42.805,6.029,-0.06,0.006,0.001,103.0,102.0,101.0,13.4,1505.2,329.7,-0.7,1.8,2470.556,13.28,0.06,275.7
2021-10-09T05:46:03,42.805,6.029,-0.045,-0.005,-0.021,101.0,104.0,100.0,13.4,1505.2,326.5,-0.7,1.8,2470.581,13.28,0.045,263.7
2021-10-09T05:49:03,42.805,6.029,-0.028,0.009,-0.006,101.0,102.0,102.0,13.4,1505.2,326.8,-0.8,1.8,2470.565,13.28,0.029,287.8
2021-10-09T05:52:03,42.805,6.029,-0.037,-0.005,-0.008,102.0,102.0,101.0,13.3,1505.2,326.8,-0.8,1.8,2470.612,13.28,0.037,262.3
2021-10-09T05:55:03,42.805,6.029,-0.046,0.01,0.007,102.0,102.0,101.0,13.4,1505.2,327.0,-0.8,1.8,2470.592,13.28,0.047,282.3
2021-10-09T05:58:03,42.805,6.029,-0.051,0.02,-0.006,102.0,102.0,101.0,13.4,1505.2,328.9,-0.8,1.8,2470.582,13.28,0.054,291.4
2021-10-09T06:04:03,42.805,6.029,-0.004,0.033,0.007,102.0,103.0,101.0,13.4,1505.2,328.1,-0.7,1.8,2470.601,13.28,0.033,353.1
2021-10-09T06:07:03,42.805,6.029,-0.011,0.008,-0.005,101.0,104.0,100.0,13.4,1505.2,327.4,-0.7,1.8,2470.652,13.28,0.013,306.0
2021-10-09T06:10:03,42.805,6.029,-0.052,0.029,-0.008,102.0,102.0,101.0,13.3,1505.2,327.5,-0.8,1.8,2470.609,13.28,0.059,299.1
2021-10-09T06:13:03,42.805,6.029,-0.068,-0.008,-0.019,103.0,102.0,100.0,13.4,1505.2,325.9,-0.8,1.8,2470.646,13.28,0.068,263.3
2021-10-09T06:16:03,42.805,6.029,-0.056,0.035,0.018,103.0,101.0,103.0,13.4,1505.2,326.6,-0.8,1.8,2470.594,13.28,0.066,302.0
2021-10-09T06:19:03,42.805,6.029,-0.051,0.015,-0.001,102.0,102.0,101.0,13.4,1505.2,331.9,-0.7,1.8,2470.622,13.28,0.053,286.4
2021-10-09T06:22:03,42.805,6.029,-0.058,0.0,-0.035,102.0,102.0,100.0,13.4,1505.2,326.9,-0.8,1.8,2470.637,13.28,0.057,270.0
2021-10-09T06:25:03,42.805,6.029,-0.034,0.009,0.004,103.0,100.0,101.0,13.3,1505.2,327.3,-0.7,1.8,2470.608,13.28,0.035,284.8
2021-10-09T06:28:03,42.805,6.029,-0.07,0.017,0.004,102.0,101.0,101.0,13.4,1505.2,326.7,-0.8,1.8,2470.619,13.28,0.072,283.7
2021-10-09T06:31:03,42.805,6.029,-0.038,0.015,0.005,103.0,102.0,101.0,13.4,1505.2,328.1,-0.8,1.8,2470.601,13.28,0.04,291.5
2021-10-09T06:34:03,42.805,6.029,-0.054,0.005,-0.023,101.0,102.0,101.0,13.4,1505.2,327.5,-0.7,1.8,2470.646,13.28,0.054,275.3
2021-10-09T06:37:03,42.805,6.029,-0.062,0.017,-0.015,103.0,101.0,101.0,13.4,1505.2,331.6,-0.8,1.8,2470.63,13.28,0.064,285.3
2021-10-09T06:40:03,42.805,6.029,-0.044,0.02,0.006,102.0,102.0,101.0,13.4,1505.2,331.3,-0.7,1.8,2470.664,13.28,0.048,294.4
2021-10-09T06:43:03,42.805,6.029,-0.064,0.012,0.005,102.0,103.0,100.0,13.4,1505.2,327.6,-0.7,1.8,2470.673,13.28,0.065,280.6
2021-10-09T06:46:03,42.805,6.029,-0.062,0.025,0.008,103.0,102.0,101.0,13.4,1505.2,327.2,-0.8,1.8,2470.655,13.28,0.066,292.0
2021-10-09T06:49:03,42.805,6.029,-0.039,-0.002,0.009,103.0,101.0,101.0,13.4,1505.2,327.3,-0.7,1.8,2470.619,13.28,0.039,267.1
2021-10-09T06:52:03,42.805,6.029,-0.047,0.018,-0.019,103.0,103.0,101.0,13.4,1505.2,331.5,-0.7,1.8,2470.654,13.28,0.05,291.0
2021-10-09T06:55:03,42.805,6.029,-0.058,-0.008,-0.033,103.0,103.0,100.0,13.4,1505.2,326.2,-0.8,1.8,2470.659,13.28,0.058,262.2
2021-10-09T06:58:03,42.805,6.029,-0.046,0.018,-0.005,104.0,103.0,101.0,13.4,1505.2,328.0,-0.7,1.8,2470.67,13.28,0.049,291.4
2021-10-09T07:04:03,42.805,6.029,-0.068,0.019,-0.028,102.0,102.0,101.0,13.4,1505.2,327.6,-0.8,1.8,2470.717,13.28,0.07,285.6
2021-10-09T07:07:03,42.805,6.029,-0.04,0.023,-0.006,102.0,102.0,101.0,13.3,1505.2,327.5,-0.7,1.8,2470.725,13.28,0.046,299.9
2021-10-09T07:10:03,42.805,6.029,-0.055,0.027,0.001,103.0,102.0,101.0,13.4,1505.2,329.7,-0.8,1.8,2470.727,13.28,0.061,296.1
2021-10-09T07:13:03,42.805,6.029,-0.03,0.013,-0.031,102.0,104.0,101.0,13.4,1505.2,325.1,-0.7,1.8,2470.715,13.28,0.032,293.4
2021-10-09T07:16:03,42.805,6.029,-0.051,0.01,-0.008,103.0,103.0,101.0,13.4,1505.2,329.0,-0.8,1.8,2470.699,13.28,0.051,281.1
2021-10-09T07:19:03,42.805,6.029,-0.025,0.027,0.002,103.0,102.0,101.0,13.4,1505.2,331.3,-0.8,1.8,2470.712,13.28,0.036,317.2
2021-10-09T07:22:03,42.805,6.029,-0.039,0.018,0.01,103.0,103.0,101.0,13.4,1505.2,327.5,-0.7,1.8,2470.651,13.28,0.042,294.8
2021-10-09T07:25:03,42.805,6.029,-0.025,0.023,-0.006,102.0,102.0,101.0,13.3,1505.2,328.2,-0.8,1.8,2470.698,13.28,0.033,312.6
2021-10-09T07:28:03,42.805,6.029,-0.038,0.023,-0.001,103.0,102.0,101.0,13.4,1505.2,328.4,-0.8,1.9,2470.674,13.28,0.044,301.2
2021-10-09T07:31:03,42.805,6.029,-0.045,0.005,0.0,103.0,103.0,102.0,13.3,1505.2,328.6,-0.7,1.8,2470.713,13.28,0.045,276.3
2021-10-09T07:34:03,42.805,6.029,-0.033,0.029,0.011,103.0,102.0,100.0,13.4,1505.2,328.9,-0.7,1.8,2470.715,13.28,0.043,311.3
2021-10-09T07:37:03,42.805,6.029,-0.072,0.033,0.002,102.0,103.0,99.0,13.3,1505.2,326.8,-0.7,1.8,2470.737,13.28,0.079,294.6
2021-10-09T07:40:03,42.805,6.029,-0.04,0.022,0.006,103.0,101.0,101.0,13.4,1505.2,331.7,-0.7,1.8,2470.679,13.28,0.045,298.8
2021-10-09T07:43:03,42.805,6.029,-0.047,0.017,0.02,103.0,102.0,100.0,13.3,1505.2,326.1,-0.7,1.8,2470.714,13.28,0.049,289.9
2021-10-09T07:46:03,42.805,6.029,-0.053,0.019,-0.002,102.0,102.0,102.0,13.4,1505.2,325.9,-0.8,1.8,2470.708,13.28,0.056,289.7
2021-10-09T07:49:03,42.805,6.029,-0.041,0.027,0.008,102.0,101.0,102.0,13.4,1505.2,330.0,-0.7,1.9,2470.683,13.28,0.049,303.4
2021-10-09T07:52:03,42.805,6.029,-0.062,0.03,-0.014,104.0,101.0,99.0,13.4,1505.2,327.0,-0.7,1.8,2470.693,13.28,0.068,295.8
2021-10-09T07:55:03,42.805,6.029,-0.045,0.006,0.0,103.0,103.0,99.0,13.4,1505.2,326.8,-0.7,1.9,2470.697,13.28,0.045,277.6
2021-10-09T07:58:03,42.805,6.029,-0.029,0.032,0.009,102.0,102.0,101.0,13.3,1505.2,329.3,-0.8,1.8,2470.734,13.28,0.043,317.8
2021-10-09T08:04:03,42.805,6.029,-0.023,0.008,-0.008,102.0,102.0,101.0,13.4,1505.2,326.4,-0.8,1.8,2470.75,13.28,0.024,289.2
2021-10-09T08:07:03,42.805,6.029,-0.052,0.025,-0.001,103.0,103.0,101.0,13.3,1505.2,326.1,-0.7,1.8,2470.791,13.28,0.057,295.7
2021-10-09T08:10:03,42.805,6.029,-0.044,0.004,-0.002,102.0,102.0,101.0,13.4,1505.2,327.1,-0.7,1.8,2470.726,13.28,0.044,275.2
2021-10-09T08:13:03,42.805,6.029,-0.071,0.026,0.002,102.0,102.0,100.0,13.4,1505.2,330.1,-0.7,1.8,2470.752,13.28,0.075,290.1
2021-10-09T08:16:03,42.805,6.029,-0.041,0.008,0.0,102.0,101.0,99.0,13.4,1505.2,326.8,-0.8,1.8,2470.752,13.28,0.041,281.0
2021-10-09T08:19:03,42.805,6.029,-0.053,0.027,0.009,102.0,101.0,102.0,13.4,1505.2,329.8,-0.8,1.8,2470.726,13.28,0.059,297.0
2021-10-09T08:22:03,42.805,6.029,-0.043,0.0,-0.039,103.0,102.0,100.0,13.4,1505.2,329.1,-0.8,1.8,2470.725,13.28,0.043,270.0
2021-10-09T08:25:03,42.805,6.029,-0.04,0.029,0.013,103.0,100.0,101.0,13.3,1505.2,330.3,-0.8,1.8,2470.771,13.28,0.049,305.9
2021-10-09T08:28:03,42.805,6.029,-0.054,0.025,-0.016,101.0,103.0,102.0,13.4,1505.2,325.8,-0.7,1.8,2470.763,13.28,0.059,294.8
2021-10-09T08:31:03,42.805,6.029,-0.057,0.03,0.027,103.0,102.0,101.0,13.4,1505.2,325.4,-0.7,1.8,2470.736,13.28,0.064,297.8
2021-10-09T08:34:03,42.805,6.029,-0.045,0.023,0.039,102.0,102.0,100.0,13.4,1505.2,327.4,-0.7,1.8,2470.761,13.28,0.05,297.1
2021-10-09T08:37:03,42.805,6.029,-0.052,0.018,-0.006,104.0,103.0,100.0,13.4,1505.2,327.4,-0.8,1.8,2470.77,13.28,0.055,289.1
2021-10-09T08:40:03,42.805,6.029,-0.052,0.017,-0.001,103.0,101.0,101.0,13.4,1505.2,326.6,-0.7,1.8,2470.722,13.28,0.054,288.1
2021-10-09T08:43:03,42.805,6.029,-0.031,0.022,-0.029,102.0,102.0,101.0,13.4,1505.2,327.1,-0.8,1.8,2470.747,13.28,0.038,305.4
2021-10-09T08:46:03,42.805,6.029,-0.026,0.007,0.004,102.0,103.0,101.0,13.4,1505.2,329.1,-0.8,1.8,2470.693,13.28,0.026,285.1
2021-10-09T08:49:03,42.805,6.029,-0.022,0.009,-0.017,103.0,102.0,101.0,13.3,1505.2,326.6,-0.7,1.8,2470.769,13.28,0.023,292.2
2021-10-09T08:52:03,42.805,6.029,-0.04,0.02,0.011,103.0,103.0,99.0,13.3,1505.2,327.6,-0.7,1.8,2470.741,13.28,0.044,296.6
2021-10-09T08:55:03,42.805,6.029,-0.024,0.007,0.0,102.0,102.0,101.0,13.3,1505.2,331.5,-0.7,1.8,2470.748,13.28,0.025,286.3
2021-10-09T08:58:03,42.805,6.029,-0.065,0.03,-0.015,102.0,102.0,100.0,13.3,1505.2,329.2,-0.7,1.8,2470.748,13.28,0.071,294.8
2021-10-09T09:04:03,42.805,6.029,-0.045,0.014,-0.004,102.0,101.0,102.0,13.3,1505.2,328.6,-0.8,1.8,2470.806,13.28,0.047,287.3
2021-10-09T09:07:03,42.805,6.029,-0.036,0.01,0.005,102.0,102.0,100.0,13.4,1505.2,327.8,-0.8,1.9,2470.768,13.28,0.037,285.5
2021-10-09T09:10:03,42.805,6.029,-0.038,0.022,0.016,102.0,102.0,101.0,13.4,1505.2,330.2,-0.8,1.8,2470.755,13.28,0.043,300.1
2021-10-09T09:13:03,42.805,6.029,-0.015,0.012,0.009,103.0,101.0,101.0,13.4,1505.2,326.1,-0.7,1.8,2470.754,13.28,0.019,308.7
2021-10-09T09:16:03,42.805,6.029,-0.027,0.006,-0.008,102.0,101.0,100.0,13.4,1505.2,329.9,-0.8,1.8,2470.77,13.28,0.027,282.5
2021-10-09T09:19:03,42.805,6.029,-0.051,0.007,-0.029,100.0,101.0,102.0,13.4,1505.2,325.6,-0.8,1.8,2470.746,13.28,0.051,277.8
2021-10-09T09:22:03,42.805,6.029,-0.03,0.021,-0.026,101.0,103.0,101.0,13.4,1505.2,328.2,-0.7,1.8,2470.778,13.28,0.036,305.0
2021-10-09T09:25:03,42.805,6.029,-0.042,0.017,-0.017,102.0,101.0,100.0,13.4,1505.2,330.8,-0.7,1.8,2470.771,13.28,0.045,292.0
2021-10-09T09:28:03,42.805,6.029,-0.066,0.037,0.003,102.0,101.0,101.0,13.3,1505.2,329.8,-0.8,1.9,2470.729,13.28,0.075,299.3
2021-10-09T09:31:03,42.805,6.029,-0.052,0.034,0.017,100.0,102.0,102.0,13.3,1505.2,330.6,-0.7,1.8,2470.733,13.28,0.062,303.2
2021-10-09T09:34:03,42.805,6.029,-0.037,0.021,0.018,102.0,103.0,100.0,13.4,1505.2,330.9,-0.8,1.8,2470.715,13.28,0.042,299.6
2021-10-09T09:37:03,42.805,6.029,-0.045,0.004,-0.001,102.0,102.0,101.0,13.4,1505.2,327.2,-0.8,1.8,2470.715,13.28,0.045,275.1
2021-10-09T09:40:03,42.805,6.029,-0.039,0.016,-0.027,103.0,103.0,100.0,13.4,1505.2,330.0,-0.8,1.8,2470.745,13.28,0.042,292.3
2021-10-09T09:43:03,42.805,6.029,-0.046,0.034,0.012,101.0,102.0,100.0,13.4,1505.2,328.6,-0.8,1.8,2470.703,13.28,0.057,306.5
2021-10-09T09:46:03,42.805,6.029,-0.022,0.02,0.007,102.0,101.0,100.0,13.4,1505.2,327.0,-0.8,1.8,2470.741,13.28,0.029,312.3
2021-10-09T09:49:03,42.805,6.029,-0.048,0.017,0.0,101.0,101.0,100.0,13.3,1505.2,326.5,-0.8,1.8,2470.749,13.28,0.05,289.5
2021-10-09T09:52:03,42.805,6.029,-0.023,0.011,0.023,103.0,103.0,100.0,13.3,1505.2,327.1,-0.8,1.9,2470.754,13.28,0.025,295.6
2021-10-09T09:55:03,42.805,6.029,-0.022,0.026,0.01,102.0,102.0,100.0,13.4,1505.2,330.0,-0.8,1.8,2470.698,13.28,0.034,319.8